Location: Puketoi
(40.5833°S, 176.0167°E)
Time: 00:14:58
(UTC+00:00)

COSMOS 2455 - Pass Details

Date: 01 October 2023
Orbit: 902 x 907 km, 67.1° (Epoch: 03 December)

Event Time Altitude Azimuth Distance (km) Brightness Sun altitude
Exits shadow 11:14:04 15° 168° (SSE) 2,303 5.4 -44.7°
Drops below altitude 10° 11:15:01 10° 164° (SSE) 2,616 5.7 -44.7°
Sets 11:17:43 0° 156° (SSE) 3,562 6.4 -44.9°
